Location: El Álamo
(40.2307°N, 3.9945°W)
Time: 03:54:49
(UTC+00:00)

Meteor 1-11 Rocket - Pass Details

Date: 19 May 2025
Orbit: 830 x 914 km, 81.2° (Epoch: 23 June)

Event Time Altitude Azimuth Distance (km) Brightness Sun altitude
Rises 22:45:08 0° 351° (N) 3,382 8.0 -26.4°
Reaches altitude 10° 22:47:33 10° 353° (N) 2,444 7.0 -26.6°
Maximum altitude 22:53:05 80° 80° (E) 851 3.6 -27.0°
Enters shadow 22:53:12 80° 99° (E) 852 3.5 -27.0°
